Regional Weather Roundup
Issued by NWS

Home | Current Version | Previous Version | Graphics & Text | Print | Product List | Glossary On
Versions: 1 2 3 4 5 6 7 8 9 10 11 12 13 14 15 16 17 18 19 20 21 22 23 24 25 26 27 28 29 30 31 32 33 34 35 36 37 38 39 40 41 42 43 44 45 46 47 48 49 50
000
ASUS43 KDMX 180407
RWRIA

WEATHER ROUNDUP FOR IOWA
NATIONAL WEATHER SERVICE DES MOINES IA
1000 PM CST WED DEC 17 2014

NOTE: "FAIR" INDICATES FEW OR NO CLOUDS BELOW 12,000 FEET WITH NO
SIGNIFICANT WEATHER AND/OR OBSTRUCTIONS TO VISIBILITY.

* - THESE STATIONS ARE NOT NWS STATIONS...THUS NOT UNDER NWS
QUALITY CONTROL.  THEY ALSO DO NOT REPORT WEATHER SUCH
AS PRECIPITATION OR FOG.

IAZ001>003-012>014-020>022-031>034-043>046-180500-
   NORTHWEST IOWA

CITY           SKY/WX    TMP DP  RH WIND       PRES   REMARKS
CARROLL *      CLOUDY    21  18  86 E7        30.27F WCI  13
CHEROKEE *     MOCLDY    18  18 100 E3        30.28S
DENISON *      CLOUDY    25  19  80 E7        30.25S WCI  17
LE MARS *      CLOUDY    18  16  93 CALM      30.28S
ORANGE CITY *  PTCLDY    19  16  86 E3        30.26R
SHELDON *      CLEAR     14  12  92 SE5       30.26R WCI   6
SIOUX CITY     CLOUDY    25  18  74 E5        30.27S WCI  19
SPENCER        PTCLDY    14  10  84 CALM      30.28R
STORM LAKE *   MOCLDY    18  16  93 E5        30.27R WCI  11
$$

IAZ055>058-069>071-079>083-090>094-180500-
   SOUTHWEST IOWA

CITY           SKY/WX    TMP DP  RH WIND       PRES   REMARKS
ATLANTIC *     CLOUDY    25  19  80 E5        30.26F WCI  19
AUDUBON *      CLOUDY    23  16  74 E3        30.26S
CLARINDA *     CLOUDY    28  21  74 E3        30.28F
COUNCIL BLFS * CLOUDY    27  21  80 E6        30.24S WCI  20
CRESTON *      CLOUDY    25  18  74 E6        30.27R WCI  18
HARLAN  *      CLOUDY    25  23  93 E7        30.29F WCI  17
LAMONI         CLOUDY    27  18  69 E7        30.26F WCI  19
RED OAK *      CLOUDY    28  21  74 E6        30.27F WCI  22
SHENANDOAH *   CLOUDY    28  23  80 E5        30.27F WCI  23
$$

IAZ047>049-059>061-072>074-084-180500-
   CENTRAL IOWA

CITY           SKY/WX    TMP DP  RH WIND       PRES   REMARKS
AMES           PTCLDY    19  15  84 NE3       30.29F
ANKENY *       CLEAR     19  18  93 CALM      30.30S
CHARITON *     CLOUDY    23  18  80 CALM      30.28F
DES MOINES     MOCLDY    24  16  71 E6        30.30S WCI  17
GRINNELL*      PTCLDY    16  12  86 N6        30.29F WCI   7
KNOXVILLE *    CLEAR     23  16  74 NE3       30.28S
MARSHALLTOWN   PTCLDY    15  12  88 NW3       30.29S
PELLA *        PTCLDY    21  18  86 CALM      30.32R
PERRY *        CLOUDY    21  19  93 E3        30.29F
$$

IAZ004>006-015-016-023>025-035-036-180500-
   NORTH CENTRAL IOWA

CITY           SKY/WX    TMP DP  RH WIND       PRES   REMARKS
ALGONA *       CLEAR     16  12  86 CALM      30.30R
CLARION *      CLEAR     16  14  93 E3        30.30R
ESTHERVILLE    PTCLDY    11   8  88 CALM      30.28R
FORT DODGE *   CLEAR     16  12  86 NE5       30.29F WCI   9
MASON CITY     CLOUDY    17  13  84 CALM      30.30R
FOREST CITY *  PTCLDY    14  10  85 CALM      30.28R
IOWA FALLS *     N/A     16  14  93 CALM      30.31R
$$

IAZ007>011-017>019-026>030-037>042-050>054-066-180500-
   NORTHEAST IOWA

CITY           SKY/WX    TMP DP  RH WIND       PRES   REMARKS
CEDAR RAPIDS   CLEAR     14  11  87 NW5       30.29R WCI   6
CHARLES CITY * CLOUDY    19  16  86 CALM      30.29R
CLINTON *      PTCLDY    14  10  85 W3        30.33F
DECORAH *      CLOUDY    16  12  86 N7        30.25F WCI   6
DUBUQUE        CLEAR     16  13  88 CALM      30.28R
MONTICELLO *   CLEAR     18  16  93 CALM      30.31R
OELWEIN *      CLEAR     16  14  93 CALM      30.30R
WATERLOO       PTCLDY    15  12  88 W3        30.32R
$$

IAZ064-065-067-068-078-180500-
   EAST CENTRAL IOWA

CITY           SKY/WX    TMP DP  RH WIND       PRES   REMARKS
DAVENPORT      PTCLDY    14  11  87 N3        30.31R
IOWA CITY      CLEAR     19  14  81 N3        30.32F
MT. PLEASANT * PTCLDY    19  16  86 N3        30.31S
MUSCATINE *    CLEAR     18  16  93 CALM      30.32F
QUAD CITIES    PTCLDY    20  14  77 CALM      30.30S
$$

IAZ062-063-075>077-085>089-095>099-180500-
   SOUTHEAST IOWA

CITY           SKY/WX    TMP DP  RH WIND       PRES   REMARKS
BURLINGTON     PTCLDY    23  17  78 N5        30.30S WCI  17
FAIRFIELD *    CLEAR     18  14  86 N3        30.31S
FORT MADISON * CLEAR     21  19  93 CALM      30.31F
KEOKUK *       CLEAR     25  19  80 N3        30.30S
OSKALOOSA *      N/A     19  16  86 NE3       30.31R
CENTERVILLE *  CLOUDY    25  19  80 NE6       30.30S WCI  18
OTTUMWA        PTCLDY    20  15  81 NE3       30.31R
WASHINGTON *   CLEAR     19  18  93 N8        30.30F WCI   9
$$

ABBREVIATIONS USED IN REMARKS
   TC - TEMPERATURES IN CELSIUS
  WCI - WIND CHILL INDEX
   HX - HEAT INDEX
  VSB - VISIBILITY
$$




USA.gov is the U.S. government's official web portal to all federal, state and local government web resources and services.